Weather in Dekhkanabad

Uzbekistan     40°31′51″N   69°01′58″E
temp.,
°C
wind,
m/s
gust,
m/s
humid.,
%
clouds,
%
prec.,
mm/h
press.,
hPa
HPBL,
m
23 april, fri
fri2323:00+14n23450 0.0 102427
02:00+13w00500 0.0 102310
05:00+12wnw00550 0.0 102310
08:00+15nnw11430 0.0 1024208
11:00+21nne2228100 0.0 10231057
14:00+24n22205 0.0 10201518
17:00+25nne33175 0.0 10191657
20:00+20ne33290 0.0 101919
24 april, sat
sat2423:00+17nne334066 0.0 101825
02:00+16ne0139100 0.0 101711
05:00+15wsw1140100 0.0 101711
08:00+18ssw113299 0.0 1018186
11:00+24nne1223100 0.0 10181009
14:00+26nnw2219100 0.0 10181525
17:00+25nnw4422100 0.0 10181267
20:00+21nne2235100 0.0 101823
25 april, sun
sun2523:00+19n22386 0.0 101811
02:00+17n2241100 0.0 101911
05:00+16nne113690 0.0 101811
08:00+20wsw11315 0.0 1019166
11:00+26nnw1120100 0.0 1019846
14:00+29nnw321453 0.0 10171580
17:00+29n221239 0.0 10161712
20:00+24n3327100 0.0 101741
26 april, mon
mon2623:00+21nne3442100 0.0 101767
02:00+19nnw1146100 0.0 101711
05:00+19w1147100 0.0 101611
08:00+22ssw1141100 0.0 1017182
11:00+27sse1223100 0.0 1016960
14:00+30n3218100 0.0 10141431
17:00+30nne2317100 0.0 10131583
20:00+26ne1122100 0.0 101311
27 april, tue
tue2723:00+22nne22303 0.0 101212
02:00+21e00320 0.0 101111
05:00+19wsw22351 0.0 101111
08:00+23ssw22315 0.0 1012180
11:00+30ne12191 0.0 1011753
14:00+33nne33160 0.0 10091714
17:00+34n21160 0.0 10081912
20:00+28n22220 0.0 100913